GW1480 Weather Reports


Display with metric or nautical units.
time (UTC)temp
F
wind
direction
speed
MPH
gust
MPH
rain 1hr
in
rain 24hr
in
rain mn
in
humidity
%
barometer
mb
20260903012719 73 236 0.0 0.0 0.00 0.00 0.00 99 1017.2
20260903012116 74 231 0.0 0.0 0.00 0.00 0.00 99 1017.2
20260903011516 74 234 0.0 0.0 0.00 0.00 0.00 99 1017.2
20260903010932 74 224 0.0 0.0 0.00 0.00 0.00 99 1017.2
20260903010347 74 229 0.0 0.0 0.00 0.00 0.00 99 1017.2
20260903005737 74 231 0.0 0.0 0.00 0.00 0.00 99 1016.9
20260903005112 74 225 0.0 0.0 0.00 0.00 0.00 99 1016.9
20260903004510 75 232 0.0 0.0 0.00 0.00 0.00 99 1016.9
20260903003930 75 224 0.0 0.0 0.00 0.00 0.00 99 1016.9
20260903003317 75 218 0.0 0.0 0.00 0.00 0.00 99 1016.9
20260903002744 76 235 0.0 0.0 0.00 0.00 0.00 99 1016.9
20260903001505 76 230 0.0 0.0 0.00 0.00 0.00 99 1016.9
20260903000931 76 232 0.0 0.0 0.00 0.00 0.00 99 1016.9
20260903000344 77 234 0.0 0.0 0.00 0.00 0.00 99 1016.9
20260902235720 77 232 0.0 0.0 0.00 0.00 0.00 98 1016.9
20260902235116 77 229 0.0 0.0 0.00 0.00 0.00 98 1016.5
20260902234516 78 235 0.0 0.0 0.00 0.00 0.00 98 1016.5
20260902233910 78 236 0.0 0.0 0.00 0.00 0.00 97 1016.9
20260902233347 78 230 0.0 0.0 0.00 0.00 0.00 97 1016.5
20260902232721 79 236 0.0 0.0 0.00 0.00 0.00 96 1016.5
20260902231506 80 247 0.0 0.0 0.00 0.00 0.00 95 1016.9
20260902230925 81 247 0.0 0.0 0.00 0.00 0.00 94 1016.5
20260902225744 83 238 0.0 0.0 0.00 0.00 0.00 92 1016.9
20260902225108 84 247 0.0 0.0 0.00 0.00 0.00 90 1016.9
20260902224527 85 246 0.0 0.0 0.00 0.00 0.00 87 1016.9
20260902223919 86 241 0.0 0.0 0.00 0.00 0.00 85 1016.9
20260902223305 86 247 0.0 0.0 0.00 0.00 0.00 82 1016.9
20260902222713 87 253 0.0 0.0 0.00 0.00 0.00 81 1016.9
20260902222134 87 255 0.0 0.0 0.00 0.00 0.00 81 1016.9
20260902221527 87 250 0.0 0.0 0.00 0.00 0.00 81 1016.9
20260902220948 88 257 0.0 0.0 0.00 0.00 0.00 79 1016.9
20260902220308 88 242 0.0 0.0 0.00 0.00 0.00 79 1016.9
20260902215711 88 250 0.0 0.0 0.00 0.00 0.00 79 1016.9
20260902215144 88 242 0.0 0.0 0.00 0.00 0.00 81 1016.9
20260902214509 89 250 0.0 0.0 0.00 0.00 0.00 80 1017.2
20260902213936 89 247 0.0 0.0 0.00 0.00 0.00 77 1016.9
20260902213338 90 243 0.0 0.0 0.00 0.00 0.00 75 1016.9
20260902212731 90 250 0.0 0.0 0.00 0.00 0.00 75 1017.2
20260902212120 91 250 0.0 0.0 0.00 0.00 0.00 74 1017.2
20260902211528 92 256 0.0 0.0 0.00 0.00 0.00 75 1017.2
20260902210346 93 237 0.0 0.0 0.00 0.00 0.00 71 1017.2
20260902205741 93 224 0.0 0.0 0.00 0.00 0.00 72 1017.2
20260902205127 93 226 0.0 0.0 0.00 0.00 0.00 71 1017.2
20260902203932 94 238 0.0 0.0 0.00 0.00 0.00 66 1017.2
20260902203344 94 217 0.0 0.0 0.00 0.00 0.00 59 1017.2
20260902202149 95 229 4.0 5.0 0.00 0.00 0.00 62 1017.6
20260902201522 95 250 0.0 0.0 0.00 0.00 0.00 52 1017.2
20260902200942 95 326 0.0 0.0 0.00 0.00 0.00 53 1017.6
20260902200323 95 249 0.0 0.0 0.00 0.00 0.00 61 1017.6
20260902195722 95 191 0.0 0.0 0.00 0.00 0.00 53 1017.9
20260902193930 95 277 0.0 0.0 0.00 0.00 0.00 52 1017.6
20260902192730 95 220 0.0 0.0 0.00 0.00 0.00 55 1017.6
20260902192136 95 306 0.0 0.0 0.00 0.00 0.00 59 1017.9
20260902191520 94 298 0.0 2.0 0.00 0.00 0.00 56 1017.9
20260902190935 94 223 0.0 0.0 0.00 0.00 0.00 62 1017.9
20260902190313 94 228 0.0 0.0 0.00 0.00 0.00 62 1017.9
20260902185110 94 291 0.0 0.0 0.00 0.00 0.00 65 1017.9
20260902184516 94 207 0.0 0.0 0.00 0.00 0.00 61 1018.2
20260902183328 93 228 4.0 5.0 0.00 0.00 0.00 63 1018.2
20260902182735 93 243 0.0 0.0 0.00 0.00 0.00 62 1017.9
20260902182144 92 260 0.0 0.0 0.00 0.00 0.00 58 1018.2
20260902181524 92 352 0.0 0.0 0.00 0.00 0.00 58 1018.2
20260902180917 92 34 2.0 7.0 0.00 0.00 0.00 60 1018.9
20260902175722 92 297 4.0 7.0 0.00 0.00 0.00 63 1018.2
20260902175149 92 81 3.0 7.0 0.00 0.00 0.00 61 1018.6
20260902174513 91 313 0.0 0.0 0.00 0.00 0.00 61 1018.9
20260902173913 91 176 0.0 0.0 0.00 0.00 0.00 62 1018.9
20260902173324 91 238 0.0 0.0 0.00 0.00 0.00 69 1018.9
20260902172743 91 114 2.0 5.0 0.00 0.00 0.00 64 1018.9
20260902171515 90 231 0.0 0.0 0.00 0.00 0.00 65 1019.3
20260902170937 90 87 3.0 5.0 0.00 0.00 0.00 65 1019.3
20260902165724 90 350 1.0 2.0 0.00 0.00 0.00 68 1019.6
20260902165116 90 305 1.0 2.0 0.00 0.00 0.00 69 1019.6
20260902164509 89 257 0.0 0.0 0.00 0.00 0.00 67 1019.6
20260902163912 89 203 0.0 0.0 0.00 0.00 0.00 75 1019.6
20260902162746 89 239 2.0 5.0 0.00 0.00 0.00 70 1020.3
20260902161510 89 285 0.0 0.0 0.00 0.00 0.00 70 1020.3
20260902160909 88 323 0.0 0.0 0.00 0.00 0.00 73 1019.9
20260902160313 88 14 2.0 5.0 0.00 0.00 0.00 70 1019.9
20260902155109 87 180 0.0 0.0 0.00 0.00 0.00 74 1019.9
20260902154534 87 287 1.0 5.0 0.00 0.00 0.00 73 1020.3
20260902153913 87 355 5.0 7.0 0.00 0.00 0.00 73 1019.9
20260902153343 87 283 0.0 0.0 0.00 0.00 0.00 76 1019.9
20260902152731 88 244 0.0 0.0 0.00 0.00 0.00 79 1020.3
20260902152148 88 354 4.0 5.0 0.00 0.00 0.00 73 1020.3
20260902151521 88 228 0.0 0.0 0.00 0.00 0.00 78 1019.9
20260902150946 87 196 0.0 0.0 0.00 0.00 0.00 72 1019.9
20260902150321 87 300 0.0 0.0 0.00 0.00 0.00 74 1019.9
20260902145706 87 198 3.0 7.0 0.00 0.00 0.00 76 1019.6
20260902145124 86 204 0.0 0.0 0.00 0.00 0.00 73 1019.6
20260902144544 86 216 0.0 0.0 0.00 0.00 0.00 79 1019.6
20260902143925 86 214 0.0 0.0 0.00 0.00 0.00 78 1019.9
20260902143334 85 207 0.0 0.0 0.00 0.00 0.00 77 1019.9
20260902142112 84 257 0.0 0.0 0.00 0.00 0.00 79 1019.9
20260902141510 83 120 0.0 0.0 0.00 0.00 0.00 80 1019.6
20260902140912 83 304 0.0 2.0 0.00 0.00 0.00 80 1019.6
20260902140329 83 310 0.0 0.0 0.00 0.00 0.00 81 1019.6
20260902135749 82 110 0.0 0.0 0.00 0.00 0.00 83 1019.6
20260902135130 81 89 0.0 0.0 0.00 0.00 0.00 83 1019.3
20260902134547 80 215 0.0 0.0 0.00 0.00 0.00 88 1019.6
20260902133947 79 224 0.0 0.0 0.00 0.00 0.00 89 1019.3
20260902132736 76 228 0.0 0.0 0.00 0.00 0.00 93 1019.6
20260902132118 75 79 0.0 0.0 0.00 0.00 0.00 92 1019.6
20260902131515 74 215 0.0 0.0 0.00 0.00 0.00 97 1019.6
20260902130927 73 228 0.0 0.0 0.00 0.00 0.00 99 1019.6
20260902130319 72 233 0.0 0.0 0.00 0.00 0.00 99 1019.6
20260902125725 72 225 0.0 0.0 0.00 0.00 0.00 99 1019.6
20260902125134 71 131 0.0 0.0 0.00 0.00 0.00 99 1019.6
20260902124520 70 185 0.0 0.0 0.00 0.00 0.00 99 1019.6
20260902123920 69 127 0.0 0.0 0.00 0.00 0.00 99 1019.6
20260902123305 68 214 0.0 0.0 0.00 0.00 0.00 99 1019.6
20260902122707 68 7 0.0 0.0 0.00 0.00 0.00 99 1019.6
20260902122147 67 234 0.0 0.0 0.00 0.00 0.00 99 1019.6
20260902120946 66 274 0.0 0.0 0.00 0.00 0.00 99 1019.6
20260902115705 66 235 0.0 0.0 0.00 0.00 0.00 99 1019.6
20260902115128 66 238 0.0 0.0 0.00 0.00 0.00 99 1019.6
20260902114505 66 238 0.0 0.0 0.00 0.00 0.00 99 1019.3
20260902113332 67 238 0.0 0.0 0.00 0.00 0.00 99 1019.3
20260902112750 67 248 0.0 0.0 0.00 0.00 0.00 99 1019.3
20260902112137 67 243 0.0 0.0 0.00 0.00 0.00 99 1019.3
20260902111520 67 235 0.0 0.0 0.00 0.00 0.00 99 1019.3
20260902110317 66 226 0.0 0.0 0.00 0.00 0.00 99 1018.9
20260902105722 66 216 0.0 0.0 0.00 0.00 0.00 99 1018.9
20260902105120 66 233 0.0 0.0 0.00 0.00 0.00 99 1018.9
20260902104535 66 230 0.0 0.0 0.00 0.00 0.00 99 1019.3
20260902103327 66 236 0.0 0.0 0.00 0.00 0.00 99 1018.9
20260902101523 66 234 0.0 0.0 0.00 0.00 0.00 99 1018.9
20260902100905 66 234 0.0 0.0 0.00 0.00 0.00 99 1019.3
20260902100346 67 237 0.0 0.0 0.00 0.00 0.00 99 1018.9
20260902095748 67 238 0.0 0.0 0.00 0.00 0.00 99 1019.3
20260902095132 67 238 0.0 0.0 0.00 0.00 0.00 99 1018.9
20260902094531 67 236 0.0 0.0 0.00 0.00 0.00 99 1018.9
20260902093304 67 236 0.0 0.0 0.00 0.00 0.00 99 1018.9
20260902092739 67 236 0.0 0.0 0.00 0.00 0.00 99 1018.9
20260902092147 67 236 0.0 0.0 0.00 0.00 0.00 99 1018.9
20260902091507 67 238 0.0 0.0 0.00 0.00 0.00 99 1018.9
20260902090925 67 235 0.0 0.0 0.00 0.00 0.00 99 1018.9
20260902090321 68 235 0.0 0.0 0.00 0.00 0.00 99 1018.9
20260902085744 68 235 0.0 0.0 0.00 0.00 0.00 99 1018.6
20260902085148 68 236 0.0 0.0 0.00 0.00 0.00 99 1018.9
20260902084508 68 234 0.0 0.0 0.00 0.00 0.00 99 1018.6
20260902083909 68 239 0.0 0.0 0.00 0.00 0.00 99 1018.6
20260902082108 68 230 0.0 0.0 0.00 0.00 0.00 99 1018.6
20260902081539 68 230 0.0 0.0 0.00 0.00 0.00 99 1018.6
20260902080323 68 243 0.0 0.0 0.00 0.00 0.00 99 1018.6
20260902075708 68 234 0.0 0.0 0.00 0.00 0.00 99 1018.2
20260902075114 69 237 0.0 0.0 0.00 0.00 0.00 99 1018.6
20260902074519 69 226 0.0 0.0 0.00 0.00 0.00 99 1018.6
20260902073915 69 234 0.0 0.0 0.00 0.00 0.00 99 1018.2
20260902073306 69 234 0.0 0.0 0.00 0.00 0.00 99 1018.6
20260902072722 69 234 0.0 0.0 0.00 0.00 0.00 99 1018.6
20260902072145 69 236 0.0 0.0 0.00 0.00 0.00 99 1018.6
20260902070909 68 234 0.0 0.0 0.00 0.00 0.00 99 1018.6
20260902065706 68 229 0.0 0.0 0.00 0.00 0.00 99 1018.6
20260902065138 68 230 0.0 0.0 0.00 0.00 0.00 99 1018.2
20260902064506 68 232 0.0 0.0 0.00 0.00 0.00 99 1018.6
20260902063946 68 238 0.0 0.0 0.00 0.00 0.00 99 1018.6
20260902063330 68 236 0.0 0.0 0.00 0.00 0.00 99 1018.6
20260902060909 69 237 0.0 0.0 0.00 0.00 0.00 99 1018.6
20260902060343 69 235 0.0 0.0 0.00 0.00 0.00 99 1018.6
20260902055714 69 235 0.0 0.0 0.00 0.00 0.00 99 1018.6
20260902055125 69 235 0.0 0.0 0.00 0.00 0.00 99 1018.2
20260902054536 69 235 0.0 0.0 0.00 0.00 0.00 99 1018.6
20260902053929 69 235 0.0 0.0 0.00 0.00 0.00 99 1018.2
20260902053338 69 238 0.0 0.0 0.00 0.00 0.00 99 1018.2
20260902052123 69 230 0.0 0.0 0.00 0.00 0.00 99 1018.2
20260902051511 69 224 0.0 0.0 0.00 0.00 0.00 99 1018.2
20260902050907 69 232 0.0 0.0 0.00 0.00 0.00 99 1017.9
20260902050320 70 233 0.0 0.0 0.00 0.00 0.00 99 1018.2
20260902045729 70 234 0.0 0.0 0.00 0.00 0.00 99 1018.2
20260902045115 70 245 0.0 0.0 0.00 0.00 0.00 99 1018.2
20260902043942 70 234 0.0 0.0 0.00 0.00 0.00 99 1017.9
20260902043349 70 230 0.0 0.0 0.00 0.00 0.00 99 1018.2
20260902042748 70 236 0.0 0.0 0.00 0.00 0.00 99 1017.9
20260902042144 70 235 0.0 0.0 0.00 0.00 0.00 99 1017.9
20260902041539 70 233 0.0 0.0 0.00 0.00 0.00 99 1017.9
20260902040933 70 228 0.0 0.0 0.00 0.00 0.00 99 1017.9
20260902040333 70 230 0.0 0.0 0.00 0.00 0.00 99 1018.2
20260902035715 70 228 0.0 0.0 0.00 0.00 0.00 99 1017.9
20260902035111 70 232 0.0 0.0 0.00 0.00 0.00 99 1017.9
20260902034505 70 234 0.0 0.0 0.00 0.00 0.00 99 1018.2
20260902033906 70 234 0.0 0.0 0.00 0.00 0.00 99 1018.2
20260902033323 71 234 0.0 0.0 0.00 0.00 0.00 99 1017.9
20260902032117 71 236 0.0 0.0 0.00 0.00 0.00 99 1017.9
20260902031530 71 234 0.0 0.0 0.00 0.00 0.00 99 1017.9
20260902030914 71 236 0.0 0.0 0.00 0.00 0.00 99 1017.9
20260902025726 72 236 0.0 0.0 0.00 0.00 0.00 99 1017.9
20260902025144 72 236 0.0 0.0 0.00 0.00 0.00 99 1017.9
20260902024536 72 236 0.0 0.0 0.00 0.00 0.00 99 1017.9
20260902023948 72 237 0.0 0.0 0.00 0.00 0.00 99 1017.9
20260902023349 72 242 0.0 0.0 0.00 0.00 0.00 99 1017.9
20260902022717 72 233 0.0 0.0 0.00 0.00 0.00 99 1018.2
20260902022119 72 233 0.0 0.0 0.00 0.00 0.00 99 1017.9
20260902020938 72 222 0.0 0.0 0.00 0.00 0.00 99 1018.2
20260902020310 72 226 0.0 0.0 0.00 0.00 0.00 99 1017.9
20260902015123 72 234 0.0 0.0 0.00 0.00 0.00 99 1017.9
20260902014507 73 221 0.0 0.0 0.00 0.00 0.00 99 1017.6
20260902013906 73 233 0.0 0.0 0.00 0.00 0.00 99 1017.9
20260902013337 73 228 0.0 0.0 0.00 0.00 0.00 99 1017.9